EDT,Max TemperatureF,Mean TemperatureF,Min TemperatureF,Max Dew PointF,MeanDew PointF,Min DewpointF,Max Humidity, Mean Humidity, Min Humidity, Max Sea Level PressureIn, Mean Sea Level PressureIn, Min Sea Level PressureIn, Max VisibilityMiles, Mean VisibilityMiles, Min VisibilityMiles, Max Wind SpeedMPH, Mean Wind SpeedMPH, Max Gust SpeedMPH,PrecipitationIn, CloudCover, Events, WindDirDegrees
2013-6-1,91,77,64,67,65,63,94,67,40,30.03,29.97,29.90,10,9,2,14,3,20,0.00,0,,185
2013-6-2,84,78,72,69,64,62,82,65,48,29.89,29.84,29.81,10,10,2,21,10,30,0.17,3,Rain,213
2013-6-3,81,72,64,66,62,54,94,76,48,29.93,29.85,29.83,10,7,2,13,7,,0.32,6,Rain,275
2013-6-4,73,64,54,51,43,38,65,46,31,30.12,30.06,29.96,10,10,10,12,6,16,0.00,0,,318
2013-6-5,77,64,51,49,45,38,77,49,31,30.21,30.13,30.07,10,10,10,10,4,,0.00,0,,134
2013-6-6,70,63,57,61,55,47,94,77,47,30.11,30.01,29.92,10,8,2,14,7,22,0.45,6,Rain,113
2013-6-7,66,63,60,64,61,57,97,93,86,29.91,29.78,29.62,10,4,2,13,9,,1.23,8,Rain,56
2013-6-8,75,68,62,63,60,56,94,79,55,30.11,29.89,29.68,10,9,5,12,7,,0.01,6,,295
2013-6-9,80,67,55,64,57,53,90,68,43,30.20,30.15,30.11,10,8,4,7,3,,0.00,4,,157
2013-6-10,75,70,64,72,67,63,100,91,81,30.13,29.96,29.78,10,5,0,14,6,22,1.43,8,Fog-Rain-Thunderstorm,109
2013-6-11,79,72,64,66,62,58,96,73,58,29.81,29.77,29.73,10,9,3,21,10,26,0.00,4,Rain,270
2013-6-12,80,72,63,64,60,57,87,67,50,29.86,29.83,29.81,10,9,5,17,7,22,0.00,1,,300
2013-6-13,82,71,60,67,62,57,96,82,52,29.80,29.60,29.43,10,7,0,20,8,25,1.01,6,Fog-Rain-Thunderstorm,83
2013-6-14,77,66,57,57,53,49,90,69,42,29.96,29.78,29.60,10,10,7,15,10,24,0.03,5,Rain,337
2013-6-15,79,68,57,58,54,49,87,62,37,30.06,30.00,29.96,10,9,5,12,5,16,0.00,0,,290
2013-6-16,81,70,59,65,59,52,90,70,47,30.02,29.93,29.85,10,8,4,17,5,26,0.02,3,Rain,249
2013-6-17,84,74,63,67,63,61,93,77,53,29.94,29.91,29.87,10,6,0,31,4,48,0.32,2,Rain-Thunderstorm,255
2013-6-18,75,68,64,69,64,61,96,88,78,29.91,29.87,29.82,8,4,2,13,2,18,0.24,5,Rain,160
2013-6-19,79,68,61,63,55,48,93,67,40,30.16,30.02,29.91,10,9,4,9,4,,0.00,5,,30
2013-6-20,79,66,55,62,57,54,94,75,47,30.28,30.24,30.17,9,6,2,9,2,16,0.00,4,,156
2013-6-21,81,68,57,57,55,51,90,62,42,30.31,30.28,30.24,10,8,4,9,3,,0.00,0,,169
2013-6-22,84,70,57,66,61,53,88,70,51,30.27,30.22,30.12,10,9,5,12,3,17,0.00,1,,217
2013-6-23,84,72,63,70,66,61,93,74,58,30.20,30.14,30.06,10,9,4,9,3,,0.00,2,,194
2013-6-24,90,78,68,70,67,63,93,68,43,30.11,30.05,30.00,10,8,3,15,4,21,0.00,0,Thunderstorm,218
2013-6-25,89,76,64,70,66,63,93,72,49,30.02,29.95,29.86,10,7,3,26,4,39,0.04,2,Rain-Thunderstorm,274
2013-6-26,87,76,66,70,67,62,94,77,51,29.89,29.85,29.79,10,8,0,23,5,29,0.75,3,Fog-Rain,241
2013-6-27,84,76,68,72,69,66,100,89,63,29.82,29.70,29.58,10,4,0,12,3,,0.34,5,Fog-Rain,151
2013-6-28,82,76,69,68,66,64,90,77,58,29.58,29.54,29.49,10,9,2,10,7,,0.00,4,Rain,230
2013-6-29,82,73,64,67,63,58,93,69,44,29.72,29.60,29.49,10,9,5,20,5,28,0.10,2,Rain,252
2013-6-30,82,74,66,72,69,65,94,83,65,29.87,29.78,29.71,10,8,2,16,3,21,0.00,5,,148